Temperature
23 23 22 23 24 24 24 23 23 23 24 23 23 22 22 22 22 22 21 21 21 21 20 20 20 20 19 19 19 18 18 18 17 17 17 17 16 16 16 15 15 16 16 16
23 22 24 25 24 24 23 23 23 23 24 23 22 22 23 22 22 22 22 21 21 21 20 20 20 20 19 19 19 19 18 18 17 17 17 17 16 16 16 15 15 15 15 16
23 24 24 24 24 23 23 23 23 23 23 23 22 22 22 23 23 22 22 21 21 21 20 20 20 20 19 19 19 19 18 18 17 17 17 17 16 16 16 15 15 15 15 15
23 24 24 23 23 23 22 23 23 23 22 21 22 21 22 22 22 22 22 22 21 21 21 20 20 20 19 19 19 19 18 18 17 17 17 17 16 16 16 15 15 15 15 15
23 24 23 23 23 23 22 23 23 23 22 21 22 22 22 23 21 22 22 22 22 21 21 20 20 20 19 19 19 19 18 18 17 17 17 16 16 16 16 15 15 15 15 15
24 25 24 24 24 24 23 23 22 22 21 20 22 22 21 23 22 22 22 22 22 21 21 20 20 20 19 19 19 19 18 18 17 17 17 16 16 16 16 16 16 15 15 15
23 24 24 24 23 23 22 21 20 20 20 20 23 23 22 24 24 23 23 22 22 21 21 20 20 19 19 19 19 18 18 18 17 17 17 17 16 16 16 16 16 16 15 15
22 22 23 24 23 22 22 22 20 20 20 21 23 22 23 25 25 24 23 23 22 21 21 20 20 19 19 19 19 18 18 18 17 17 17 17 17 17 16 16 16 16 16 16
23 22 24 24 24 23 22 22 22 21 21 21 22 23 24 24 24 24 24 23 22 21 21 20 20 19 19 19 19 18 18 18 18 18 17 17 17 17 16 16 16 16 16 16
24 22 23 24 23 23 23 22 22 21 20 20 22 22 22 23 23 23 23 23 22 22 21 21 20 19 19 19 19 18 18 18 18 18 17 17 17 17 17 17 16 16 16 16
24 23 22 23 22 22 22 22 22 21 21 20 20 21 23 23 24 24 24 23 22 22 21 21 20 20 19 19 19 18 18 18 18 18 17 17 17 17 17 16 16 16 16 16
24 23 22 22 23 24 23 23 22 20 20 20 20 21 24 24 24 24 24 23 22 22 21 21 20 20 19 19 18 18 18 18 18 18 18 17 17 17 17 17 17 17 17 17
23 22 21 21 22 22 22 23 23 22 21 20 20 21 24 24 24 24 23 23 22 22 21 21 20 20 19 19 19 18 18 18 18 18 18 17 17 17 17 17 17 17 17 17
22 22 21 20 21 22 22 22 23 22 20 21 21 22 23 24 23 23 23 23 22 22 21 21 20 20 20 19 19 19 18 18 18 18 18 18 17 17 17 17 17 17 17 17
22 22 22 23 23 23 23 23 23 22 22 21 22 23 23 24 23 23 23 23 22 22 21 21 20 20 20 19 19 19 19 18 18 18 18 18 18 17 17 17 17 17 17 17
22 22 22 22 23 23 23 23 23 23 23 23 23 23 24 24 24 23 23 22 22 22 21 21 20 20 20 19 19 19 19 18 18 18 18 18 18 17 17 17 17 17 17 16
22 22 21 21 22 22 22 23 23 23 24 23 22 23 24 24 24 23 22 22 22 22 21 21 21 20 20 20 19 19 19 18 18 18 18 18 17 17 17 17 17 17 16 16
22 21 21 21 21 20 23 25 24 24 24 24 24 24 24 24 23 23 22 22 22 21 21 21 21 20 20 20 20 19 19 18 18 18 18 18 17 17 17 17 17 17 17 16
23 22 21 21 20 21 23 24 24 23 23 24 24 24 24 23 23 22 22 21 21 21 21 21 21 20 20 20 20 19 19 18 18 18 18 18 17 17 17 17 17 17 17 16
22 22 21 20 20 20 23 24 25 24 22 24 25 24 24 23 22 21 21 21 21 20 20 20 20 20 20 20 20 19 19 19 18 18 18 18 17 17 17 17 17 17 17 16
20 20 20 20 20 21 23 24 24 22 22 24 24 24 24 23 22 22 21 21 20 20 20 20 20 20 20 20 20 19 19 19 19 18 18 17 17 17 17 17 17 17 16 16
20 20 20 20 20 20 23 23 23 23 24 24 24 23 23 22 22 21 21 20 20 20 20 19 19 19 19 19 19 19 19 19 19 18 18 17 17 17 17 17 16 16 16 16
21 21 21 21 21 22 23 23 23 23 23 23 23 23 22 22 21 20 20 20 19 19 19 19 19 19 19 19 19 19 19 19 18 18 18 17 17 17 17 16 16 16 16 16
21 22 21 21 22 22 22 22 22 22 22 22 22 22 21 21 21 20 19 19 19 19 19 19 19 19 19 19 19 19 18 18 18 18 17 17 17 17 16 16 16 16 16 16
20 21 21 21 21 22 22 22 22 21 21 22 22 21 21 21 20 20 19 19 18 18 18 18 18 18 18 18 18 18 18 18 18 17 17 17 16 16 16 16 16 16 16 16
21 20 20 20 21 21 21 21 21 21 21 21 21 21 20 20 20 19 19 18 18 18 18 18 18 18 18 18 18 18 18 17 17 17 16 16 16 16 16 16 15 15 15 15
Wind_Speed
5 6 7 7 7 7 6 5 4 4 5 5 6 6 9 10 9 9 10 10 10 9 8 8 8 8 6 5 7 8 7 6 4 2 3 4 3 4 4 4 6 6 7 7
4 7 6 4 4 4 6 6 4 3 4 4 5 7 8 11 12 12 11 11 11 10 10 8 8 7 7 6 6 7 7 6 5 2 4 4 4 4 4 3 5 7 8 7
6 1 2 4 4 5 6 6 5 3 3 4 5 7 9 11 11 11 11 11 11 12 12 11 9 7 7 6 5 6 7 6 6 5 4 5 4 3 3 4 3 5 8 8
5 4 2 4 5 5 5 5 4 4 4 4 6 5 7 11 12 12 12 11 11 12 12 11 9 9 8 8 6 7 7 6 6 6 4 4 4 3 3 3 3 4 6 7
5 3 4 5 5 4 4 4 4 6 6 7 8 7 6 12 12 14 13 12 11 11 12 12 11 9 8 8 6 6 7 7 6 7 5 3 4 3 3 4 4 4 4 5
6 3 4 4 3 3 3 4 5 6 5 7 10 8 4 9 13 14 14 13 12 11 11 11 10 9 7 8 6 6 7 7 7 6 5 4 5 5 4 4 4 4 3 3
6 7 5 3 4 5 5 4 3 4 4 5 6 5 4 6 9 12 14 14 14 12 11 11 11 10 9 9 8 7 8 7 6 5 6 6 5 5 5 4 3 4 3 3
6 6 7 6 6 4 6 7 4 2 3 2 4 4 2 5 6 10 12 12 14 14 13 13 12 11 10 10 10 9 8 8 7 6 5 6 5 4 3 3 4 4 3 3
4 4 6 7 6 5 5 6 7 6 8 5 3 3 5 6 6 8 11 12 14 15 14 14 13 12 11 11 10 9 9 8 8 6 5 5 5 5 4 3 4 4 4 4
6 3 6 6 5 7 7 5 4 3 3 3 3 3 3 7 8 7 9 10 11 14 14 14 13 12 10 10 9 9 9 9 8 7 6 5 5 5 4 3 4 4 5 4
8 5 5 7 7 7 7 7 5 3 4 3 2 1 1 4 6 7 8 9 10 11 13 13 13 12 11 11 10 9 8 8 8 7 6 6 6 5 4 4 4 4 4 4
5 4 5 7 5 5 6 7 6 4 3 3 2 2 1 3 5 5 6 8 9 10 10 12 13 12 11 11 11 10 8 8 7 7 7 7 6 6 6 5 4 3 4 4
2 4 4 4 4 7 8 8 8 6 5 5 3 2 1 4 5 5 6 7 8 10 11 11 12 13 12 11 10 10 9 9 8 7 8 7 7 6 7 6 4 3 3 3
2 6 6 5 3 5 7 8 9 8 6 6 5 4 3 3 4 4 5 7 9 10 12 12 12 12 12 12 11 10 9 9 9 7 8 8 7 6 6 6 5 4 4 3
5 8 8 8 7 6 7 8 9 10 9 8 7 5 4 2 4 5 5 6 8 9 10 13 13 11 12 12 11 11 10 10 9 8 7 7 7 6 6 5 4 4 3 3
8 8 8 9 8 8 9 9 10 11 11 10 9 7 4 1 3 5 5 6 8 9 10 12 13 13 13 12 11 11 11 11 10 9 7 7 7 7 7 6 5 4 3 3
7 8 6 7 8 7 9 10 10 10 10 9 8 6 3 2 2 3 5 6 7 8 9 11 12 12 13 13 12 12 12 11 10 9 8 8 7 7 7 7 6 5 3 3
8 7 5 5 6 8 4 2 5 6 7 6 6 4 3 1 3 4 4 5 5 7 8 9 10 11 11 12 11 10 11 11 10 10 9 9 8 8 7 7 7 6 4 4
9 7 5 5 6 6 5 4 4 5 6 5 6 6 5 4 3 3 4 5 4 5 6 7 8 9 10 12 12 11 11 11 11 10 10 9 9 8 8 7 7 6 5 5
8 7 6 6 7 5 2 2 2 3 4 4 4 5 6 7 4 3 6 7 5 5 6 6 6 7 8 9 11 12 11 11 10 9 9 9 10 9 9 8 7 5 5 5
10 8 10 9 8 5 1 3 2 3 1 1 1 3 5 5 4 5 8 8 7 6 6 7 7 6 6 7 9 10 10 9 8 8 8 8 8 9 8 7 6 6 5 5
9 8 9 8 8 5 2 4 2 1 2 1 2 3 5 7 7 7 8 8 8 7 7 7 6 6 7 7 8 8 8 7 8 9 9 8 8 8 7 7 6 5 6 6
8 6 4 4 3 3 2 1 1 2 2 3 5 6 6 8 7 8 8 7 7 7 6 6 6 7 7 6 6 7 7 8 8 8 8 7 7 6 7 7 6 5 5 5
5 4 4 3 2 3 1 1 2 2 3 4 5 6 6 6 7 8 8 6 6 6 6 6 7 7 7 6 5 6 7 8 8 8 7 6 6 6 6 5 5 5 5 5
3 3 5 5 4 2 2 1 2 2 2 3 5 5 5 5 6 7 7 7 6 6 6 6 6 6 6 6 6 5 6 7 7 7 7 6 5 6 6 5 3 4 3 4
6 5 5 5 4 2 2 1 1 2 2 3 5 6 5 5 6 6 7 6 6 7 6 6 6 6 6 6 6 5 6 7 7 6 5 5 5 4 5 5 4 4 4 4
Wind_Direction
214 231 235 230 231 271 299 288 262 214 172 195 218 204 182 180 183 177 171 167 166 166 160 149 132 124 119 116 114 119 127 121 120 110 105 100 87 77 62 55 43 39 53 61
221 235 249 271 262 257 269 274 254 206 172 200 225 226 198 187 190 184 179 177 173 170 162 152 148 147 146 142 140 139 128 117 105 88 108 109 102 96 88 60 45 44 49 46
242 228 207 250 249 256 262 258 253 248 205 223 226 236 216 193 192 180 182 183 178 176 168 164 165 153 143 152 163 138 128 130 127 105 80 88 85 93 95 85 54 48 53 43
248 240 214 243 248 251 269 276 262 249 248 247 218 242 216 190 186 186 187 189 185 181 171 169 166 153 156 162 164 145 140 128 117 114 103 115 114 104 102 109 111 80 66 55
239 216 227 240 243 238 275 307 276 257 258 266 250 249 219 181 189 195 192 192 187 179 171 170 164 159 161 152 150 136 126 119 113 110 112 111 111 112 107 111 112 97 78 66
257 233 226 242 244 221 250 278 265 254 255 254 241 235 224 193 196 195 192 191 188 181 171 166 158 153 152 140 136 125 125 123 120 134 147 135 128 124 123 123 121 116 108 86
227 222 204 219 226 204 223 243 248 221 216 241 230 224 220 196 185 187 187 187 185 180 170 166 163 160 157 148 144 136 131 132 145 171 159 150 159 146 139 133 122 118 114 102
216 213 198 204 231 219 221 231 252 274 253 256 223 223 189 156 160 176 179 182 179 177 174 175 172 165 162 154 151 153 151 154 164 182 170 152 138 121 114 123 123 119 115 114
238 211 181 193 223 241 232 241 258 283 291 277 229 192 154 144 155 169 173 174 176 177 175 172 166 166 164 159 159 161 159 163 170 181 158 136 135 128 139 138 122 120 124 123
271 240 185 178 215 234 253 264 259 253 291 286 253 229 172 158 165 169 168 170 174 172 172 170 164 164 163 158 161 164 170 169 170 170 157 143 138 130 131 119 116 123 113 109
253 246 194 187 210 221 221 238 245 251 250 280 306 336 81 150 153 164 168 169 172 171 170 168 163 164 163 158 163 169 173 163 161 160 148 143 138 141 139 119 116 125 133 138
246 260 227 209 208 237 239 236 239 246 266 262 272 277 127 127 135 145 158 164 167 168 166 161 160 164 165 165 170 172 170 160 158 154 151 153 149 156 146 148 164 169 143 141
246 250 241 210 200 215 233 231 236 242 260 261 249 239 136 113 122 141 153 158 163 168 168 164 163 168 170 170 173 169 167 159 157 158 158 155 155 164 159 164 158 148 137 139
249 247 244 243 249 220 232 235 234 236 240 258 251 234 235 157 143 154 167 168 167 170 171 170 168 170 170 170 173 170 166 158 160 164 165 160 164 166 160 150 155 156 152 143
230 251 258 260 262 259 249 241 232 234 240 249 263 255 250 191 162 171 173 167 166 172 170 168 169 170 169 168 173 172 164 159 162 168 171 164 160 156 144 138 143 143 143 139
228 252 263 264 259 259 265 251 238 235 238 245 255 260 275 273 166 166 171 173 173 174 174 170 171 171 172 171 174 169 162 162 164 171 172 160 158 153 150 150 150 145 140 126
220 247 263 264 265 256 252 246 239 234 236 239 251 255 249 220 166 160 165 176 179 177 174 171 172 174 174 173 176 171 166 164 167 172 172 162 162 155 155 155 147 143 139 121
228 242 256 263 266 254 246 218 222 229 237 241 237 237 231 178 135 129 141 164 170 169 166 167 170 171 171 171 175 168 160 165 171 173 172 164 159 155 155 154 156 156 153 144
230 231 241 251 252 263 254 231 217 218 236 240 227 212 187 169 146 135 146 152 157 157 155 158 166 168 169 169 171 166 165 170 175 174 170 165 163 161 163 166 169 165 163 162
226 233 234 242 251 247 235 157 182 231 244 242 226 196 182 178 181 173 154 147 144 142 146 149 152 159 163 166 167 168 170 170 174 170 168 165 164 165 169 173 171 161 160 164
205 219 228 235 245 262 211 127 163 222 228 341 204 174 168 162 138 132 131 132 136 134 137 142 147 153 152 155 159 166 163 168 167 157 157 158 161 165 167 167 164 161 159 161
206 212 224 229 232 232 177 183 217 80 64 25 76 101 117 117 115 113 118 123 128 128 132 138 144 145 142 148 156 161 159 157 149 148 152 159 161 165 160 154 159 159 156 162
211 214 221 225 211 166 186 176 90 38 19 48 69 86 104 117 117 113 116 120 126 131 131 133 136 135 138 147 151 152 145 141 142 142 145 151 151 148 145 150 159 158 158 167
229 220 233 243 213 197 178 115 101 58 39 56 80 97 102 114 122 122 121 120 123 129 135 137 131 130 134 135 126 124 127 133 138 141 144 147 148 145 144 149 159 164 172 179
239 236 247 246 231 200 150 138 104 87 75 82 93 102 107 111 114 119 123 125 128 126 126 130 131 133 133 130 126 126 131 135 138 143 148 150 148 149 151 148 154 166 170 172
241 236 237 247 244 243 179 156 136 131 132 114 106 106 105 107 111 114 118 122 124 123 124 126 127 127 131 130 127 124 129 134 138 142 147 146 146 148 147 141 123 77 99 121
Height
1500 1503 1504 1500 1498 1499 1499 1501 1503 1501 1499 1503 1507 1508 1509 1511 1514 1517 1520 1523 1527 1530 1533 1535 1538 1540 1542 1545 1547 1548 1550 1552 1553 1554 1554 1555 1555 1556 1556 1556 1557 1558 1558 1558
1500 1502 1497 1495 1496 1498 1500 1503 1504 1501 1498 1503 1507 1508 1506 1508 1511 1514 1517 1521 1524 1528 1531 1534 1537 1539 1542 1545 1547 1548 1551 1552 1553 1554 1555 1556 1556 1557 1557 1558 1558 1558 1559 1559
1500 1497 1495 1496 1498 1500 1501 1503 1502 1503 1501 1501 1506 1511 1506 1505 1508 1511 1515 1519 1522 1526 1529 1532 1535 1539 1541 1544 1547 1549 1550 1552 1553 1554 1555 1556 1557 1558 1558 1558 1559 1559 1559 1560
1496 1494 1495 1498 1499 1501 1505 1498 1499 1502 1507 1510 1507 1518 1506 1502 1505 1508 1512 1516 1519 1522 1526 1530 1534 1537 1540 1544 1546 1548 1550 1552 1553 1555 1556 1557 1558 1559 1559 1560 1560 1560 1560 1561
1495 1493 1496 1499 1498 1499 1502 1498 1500 1502 1506 1510 1505 1511 1505 1498 1505 1506 1508 1512 1516 1520 1523 1528 1532 1536 1539 1543 1546 1548 1550 1552 1553 1554 1556 1557 1558 1559 1560 1561 1561 1561 1561 1562
1492 1492 1493 1495 1495 1497 1499 1501 1501 1502 1507 1518 1505 1508 1507 1496 1497 1500 1504 1508 1512 1517 1521 1526 1530 1534 1538 1541 1545 1547 1549 1551 1553 1555 1556 1557 1559 1560 1561 1562 1562 1562 1562 1563
1495 1493 1492 1494 1497 1498 1500 1509 1518 1520 1522 1515 1495 1500 1500 1486 1487 1492 1498 1503 1509 1514 1519 1523 1528 1532 1536 1540 1543 1546 1549 1551 1553 1555 1557 1558 1559 1560 1561 1562 1563 1563 1564 1564
1499 1501 1492 1493 1495 1499 1500 1504 1518 1525 1520 1509 1496 1499 1491 1481 1485 1489 1495 1500 1505 1511 1516 1521 1525 1530 1534 1538 1541 1545 1548 1550 1553 1554 1557 1558 1560 1561 1562 1563 1564 1564 1565 1565
1493 1496 1488 1489 1491 1494 1499 1500 1498 1508 1508 1509 1501 1492 1485 1482 1485 1488 1492 1497 1502 1508 1513 1518 1523 1528 1532 1536 1540 1543 1546 1549 1552 1554 1557 1558 1560 1561 1562 1563 1564 1565 1565 1566
1484 1494 1489 1489 1492 1493 1494 1496 1501 1509 1517 1518 1505 1497 1494 1487 1487 1488 1491 1495 1499 1505 1510 1515 1520 1525 1530 1534 1538 1542 1545 1548 1551 1554 1556 1558 1560 1561 1562 1564 1565 1566 1566 1567
1482 1491 1492 1491 1494 1495 1496 1497 1498 1502 1506 1517 1518 1508 1484 1484 1484 1486 1489 1493 1498 1502 1508 1513 1518 1523 1528 1532 1536 1540 1544 1547 1550 1553 1555 1557 1559 1561 1562 1564 1565 1566 1567 1567
1482 1486 1493 1490 1486 1487 1489 1492 1497 1509 1509 1506 1513 1508 1480 1481 1482 1486 1489 1493 1497 1501 1506 1510 1515 1521 1526 1530 1534 1538 1542 1545 1549 1551 1554 1556 1558 1560 1562 1563 1565 1566 1567 1568
1484 1489 1499 1500 1497 1491 1490 1489 1491 1495 1501 1506 1511 1505 1481 1481 1483 1486 1488 1492 1496 1500 1504 1509 1513 1518 1523 1528 1532 1536 1540 1543 1547 1550 1553 1556 1558 1560 1562 1563 1565 1566 1567 1568
1484 1487 1494 1502 1495 1490 1490 1488 1488 1493 1502 1503 1499 1496 1486 1483 1485 1486 1488 1491 1494 1498 1502 1507 1511 1516 1520 1525 1530 1534 1538 1541 1545 1548 1552 1554 1557 1559 1561 1563 1564 1566 1567 1568
1483 1487 1484 1482 1480 1481 1483 1484 1485 1488 1490 1495 1492 1488 1484 1482 1483 1485 1487 1489 1493 1496 1500 1504 1508 1513 1518 1523 1528 1532 1536 1539 1543 1547 1550 1553 1556 1558 1560 1562 1564 1565 1567 1568
1481 1483 1482 1483 1478 1479 1481 1479 1480 1481 1482 1484 1484 1484 1479 1479 1481 1483 1485 1488 1491 1494 1498 1502 1506 1510 1515 1520 1525 1529 1533 1537 1541 1544 1548 1551 1554 1557 1559 1561 1563 1565 1566 1568
1479 1482 1486 1488 1480 1479 1485 1475 1475 1475 1475 1478 1483 1480 1477 1478 1479 1482 1484 1487 1489 1493 1496 1499 1503 1508 1512 1517 1522 1526 1530 1534 1538 1542 1546 1549 1552 1555 1557 1560 1562 1563 1565 1567
1476 1480 1484 1486 1486 1495 1476 1464 1466 1470 1471 1471 1473 1474 1475 1477 1479 1481 1483 1486 1488 1491 1494 1497 1501 1506 1511 1515 1520 1525 1528 1532 1536 1540 1544 1547 1550 1553 1555 1558 1560 1562 1563 1565
1471 1477 1483 1487 1491 1483 1471 1464 1465 1469 1471 1468 1469 1471 1473 1476 1478 1481 1482 1484 1487 1489 1492 1496 1500 1504 1509 1513 1517 1522 1526 1530 1534 1537 1541 1544 1547 1550 1553 1555 1557 1560 1562 1563
1469 1472 1480 1485 1490 1489 1472 1462 1462 1467 1473 1465 1465 1467 1470 1473 1479 1481 1481 1483 1486 1489 1492 1495 1499 1503 1507 1511 1515 1520 1524 1528 1531 1535 1538 1541 1544 1547 1550 1553 1555 1558 1560 1562
1473 1475 1479 1483 1485 1476 1464 1463 1465 1477 1474 1464 1464 1466 1468 1471 1475 1478 1479 1482 1485 1488 1491 1494 1498 1501 1505 1509 1514 1518 1521 1525 1529 1533 1536 1540 1543 1545 1548 1551 1553 1555 1557 1559
1469 1474 1476 1476 1482 1480 1463 1463 1466 1467 1464 1464 1464 1466 1468 1471 1475 1477 1479 1482 1485 1487 1490 1493 1497 1501 1504 1508 1512 1515 1519 1523 1527 1531 1534 1537 1541 1543 1546 1548 1551 1553 1555 1557
1461 1463 1465 1467 1469 1463 1462 1463 1464 1464 1465 1465 1466 1467 1469 1472 1475 1478 1480 1483 1485 1487 1490 1493 1497 1500 1504 1508 1511 1515 1518 1522 1525 1528 1532 1535 1538 1541 1543 1545 1548 1550 1552 1554
1456 1457 1460 1462 1460 1460 1462 1462 1464 1465 1465 1466 1467 1469 1471 1474 1476 1478 1481 1483 1486 1488 1491 1494 1497 1500 1504 1507 1510 1514 1517 1520 1523 1526 1529 1532 1535 1538 1540 1543 1545 1547 1549 1551
1457 1457 1459 1461 1460 1460 1461 1463 1464 1465 1466 1467 1468 1470 1472 1474 1476 1479 1481 1483 1486 1489 1491 1494 1497 1500 1503 1506 1509 1513 1515 1518 1520 1524 1527 1530 1533 1535 1538 1540 1542 1544 1546 1548
1455 1457 1460 1460 1459 1460 1461 1463 1464 1465 1466 1467 1469 1471 1473 1475 1477 1479 1481 1483 1486 1489 1491 1494 1497 1500 1503 1505 1508 1511 1514 1517 1519 1522 1525 1528 1530 1533 1535 1537 1539 1541 1544 1545